Location: Sternwarte ZA, Rosenfeld-Brittheim
(48.2889°N, 8.6789°E)
Time: 20:08:29
(UTC+02:00)

ISS - Pass Details

Date: 22 July 2019
Orbit: 409 x 418 km, 51.6° (Epoch: 20 July)

Event Time Altitude Azimuth Distance (km) Brightness Sun altitude
Rises 22:57:50 0° 270° (W) 2,353 0.6 -13.4°
Reaches altitude 10° 22:59:59 10° 276° (W) 1,489 -0.4 -13.6°
Maximum altitude 23:03:14 48° 352° (N) 550 -2.8 -13.9°
Drops below altitude 10° 23:06:29 10° 69° (ENE) 1,486 -1.1 -14.2°
Enters shadow 23:08:20 - 74° (ENE) 2,230 -0.3 -14.4°
